COSMOS 1036

Satellite information

Favourite Embed

Satellite Type and Status

PAYLOADIN ORBIT

Key statistics

Satellite COSMOS 1036 at a glance.

Uptime

17242

Days in orbit

Revolutions

≈ 12.5

Per day

Orbit

LEO

Low Earth Orbit

Inclination

74.0

Latest

Satellite identification and parameters

Extended collection of information and parameters for COSMOS 1036.

Object identification

Identified? True

Debris? False

Object name: COSMOS 1036

International designator: 1978-091C

Object number (NORAD): 11045

Object ID (CCSDS): 11045

Country: COMMONWEALTH OF INDEPENDENT STATES (CIS)

Current information (Y/N): Y

RCS size: MEDIUM

Orbital parameters

Period: 115.122 minutes

Inclination: 74.0327 deg

SMA: 7839.082 km

Apoapsis: 1479.729 km

Periapsis: 1442.166 km

RAAN: 183.0575 deg

Eccentricy: 0.00239589

Argument of periapsis: 66.8769 deg

Mean anomaly: 43.4028 deg

Mean motion: 12.50849098 rev/day

Mean motion (dot): 0.00000008 rev/day2

B* drag term: 0.00015677038 1/REarth

Two-line elements (TLE)

Creation date: Dec. 18, 2025, 2:19 a.m.

Reference frame: TEME

Reference center: EARTH

Epoch: Dec. 17, 2025, 9:39 p.m. UTC

TLE line 0: 0 COSMOS 1036

TLE line 1: 1 11045U 78091C 25351.90253895 .00000008 00000-0 15677-3 0 9990

TLE line 2: 2 11045 74.0327 183.0575 0023959 66.8769 43.4028 12.50849098155553

Live tracking on map

Real-time ground track for satellite COSMOS 1036.

In-orbit conjunctions

There are no conjunctions computed for COSMOS 1036, at the moment. Check back to stay up to date, as we update our databases every day.

Go to all conjunctions

Associated space launch

Military communications satellites

COSMOS 1036 was lifted into orbit during the mission ‘Kosmos-3M | Strela-1M 153-160’, on board a Kosmos-3M space rocket.

The launch took place on Oct. 4, 1978, 3:49 a.m. from 132/1 (132L).

For more information about the launch, click the button.

Launch to space Kosmos-3M | Strela-1M 153-160
Kosmos-3M | Strela-1M 153-160

Agency: N/A

Status: Launch Successful

Launch date: Oct. 4, 1978, 3:49 a.m. UTC

Rocket: Kosmos-3M

Launch pad: 132/1 (132L)

Location: Plesetsk Cosmodrome, Russian Federation

...

Latest news about this satellite

There are no fresh news available about this satellite. Check back as we update our databases every day.


Newsletter sign-up

Weekly statistics, charts and insights to help you stay on top of the space industry.